Date String (YYYY-MM-DD hh:mm:ss) UTC,Instrument flags,Ambient pressure (hPa),Sample flow (lpm),Bypass flow (lpm),Sample temperature (°C),Ambient temperature (°C),ASC tube jacket temperature (°C),LED temperature (°C),Box temperature (°C),Sample RH (%),Span deviation,Mass concentration (μg/m³),Mass concentration (μg/m³),Mass concentration (μg/m³)
DateTimeUTC,F1_M11,P_M11,Q1_M11,Q2_M11,T1_M11,T2_M11,T3_M11,T4_M11,T5_M11,U1_M11,ZSPAN_M11,X0_M11,X2_M11,X1_M11
2022-07-22 09:00:00,,0827.2,4.99,0.00,29.9,28.5,00.0,38.5,31.8,13.2,0000.0,0013.98,0006.50,0005.67
2022-07-22 09:01:00,,0827.2,5.01,0.00,29.9,27.7,00.0,38.5,31.7,13.3,0000.0,0014.60,0006.51,0005.67
2022-07-22 09:02:00,,0827.2,5.00,0.00,29.8,27.5,00.0,38.4,31.6,13.4,0000.0,0014.18,0006.49,0005.67
2022-07-22 09:03:00,,0827.2,5.00,0.00,29.8,27.6,00.0,38.5,31.5,13.4,0000.0,0013.54,0006.47,0005.69
2022-07-22 09:04:00,,0827.2,5.00,0.00,29.7,27.6,00.0,38.5,31.5,13.5,0000.0,0013.06,0006.48,0005.71
2022-07-22 09:05:00,,0827.2,5.00,0.00,29.7,27.8,00.0,38.5,31.5,13.5,0000.0,0013.43,0006.50,0005.72
2022-07-22 09:06:00,,0827.2,5.00,0.00,29.7,27.9,00.0,38.5,31.5,13.6,0000.0,0013.77,0006.50,0005.72
2022-07-22 09:07:00,,0827.2,5.00,0.00,29.7,28.0,00.0,38.5,31.5,13.6,0000.0,0013.70,0006.46,0005.71
2022-07-22 09:08:00,,0827.3,5.00,0.00,29.7,28.1,00.0,38.5,31.5,13.6,0000.0,0013.27,0006.46,0005.71
2022-07-22 09:09:00,,0827.4,5.00,0.00,29.7,28.2,00.0,38.5,31.6,13.7,0000.0,0012.99,0006.46,0005.70
2022-07-22 09:10:00,,0827.2,5.00,0.00,29.7,28.3,00.0,38.5,31.6,13.7,0000.0,0012.69,0006.43,0005.68
2022-07-22 09:11:00,,0827.3,4.99,0.00,29.7,28.4,00.0,38.5,31.6,13.7,0000.0,0013.53,0006.46,0005.67
2022-07-22 09:12:00,,0827.3,5.01,0.00,29.8,28.5,00.0,38.5,31.7,13.8,0000.0,0013.58,0006.48,0005.68
2022-07-22 09:13:00,,0827.3,5.00,0.00,29.8,28.6,00.0,38.5,31.7,13.9,0000.0,0013.74,0006.48,0005.67
2022-07-22 09:14:00,,0827.2,5.00,0.00,29.8,28.6,00.0,38.5,31.7,13.9,0000.0,0013.94,0006.49,0005.65
2022-07-22 09:15:00,,0827.3,4.99,0.00,29.8,28.7,00.0,38.5,31.8,13.9,0000.0,0013.74,0006.44,0005.63
2022-07-22 09:16:00,,0827.3,4.99,0.00,29.9,28.7,00.0,38.6,31.8,13.9,0000.0,0013.67,0006.50,0005.63
2022-07-22 09:17:00,,0827.3,5.00,0.00,29.9,28.5,00.0,38.5,31.8,13.9,0000.0,0013.79,0006.51,0005.63
2022-07-22 09:18:00,,0827.2,5.01,0.00,29.9,27.7,00.0,38.5,31.7,14.0,0000.0,0014.44,0006.57,0005.63
2022-07-22 09:19:00,,0827.3,5.00,0.00,29.8,27.5,00.0,38.5,31.6,14.2,0000.0,0014.69,0006.63,0005.64
2022-07-22 09:20:00,,0827.2,4.99,0.00,29.7,27.5,00.0,38.5,31.5,14.4,0000.0,0015.25,0006.63,0005.62
2022-07-22 09:21:00,,0827.2,5.00,0.00,29.7,27.6,00.0,38.5,31.5,14.5,0000.0,0015.20,0006.64,0005.62
2022-07-22 09:22:00,,0827.2,5.00,0.00,29.7,27.7,00.0,38.5,31.5,14.5,0000.0,0014.61,0006.62,0005.62
2022-07-22 09:23:00,,0827.3,4.99,0.00,29.7,27.9,00.0,38.5,31.5,14.6,0000.0,0013.83,0006.62,0005.61
2022-07-22 09:24:00,,0827.3,5.00,0.00,29.7,28.0,00.0,38.5,31.5,14.6,0000.0,0013.64,0006.60,0005.60
2022-07-22 09:25:00,,0827.2,5.00,0.00,29.7,28.1,00.0,38.5,31.5,14.6,0000.0,0013.46,0006.59,0005.60
2022-07-22 09:26:00,,0827.2,5.01,0.00,29.7,28.2,00.0,38.5,31.6,14.6,0000.0,0014.11,0006.61,0005.60
2022-07-22 09:27:00,,0827.2,4.98,0.00,29.7,28.3,00.0,38.5,31.6,14.6,0000.0,0014.07,0006.55,0005.58
2022-07-22 09:28:00,,0827.2,5.01,0.00,29.7,28.4,00.0,38.5,31.6,14.7,0000.0,0013.57,0006.52,0005.57
2022-07-22 09:29:00,,0827.3,5.00,0.00,29.7,28.5,00.0,38.5,31.7,14.6,0000.0,0013.13,0006.48,0005.55
2022-07-22 09:30:00,,0827.3,5.00,0.00,29.8,28.6,00.0,38.5,31.7,14.6,0000.0,0014.03,0006.42,0005.54
2022-07-22 09:31:00,,0827.4,4.99,0.00,29.8,28.6,00.0,38.5,31.7,14.7,0000.0,0013.20,0006.41,0005.53
2022-07-22 09:32:00,,0827.4,5.01,0.00,29.8,28.7,00.0,38.5,31.8,14.7,0000.0,0013.20,0006.42,0005.54
2022-07-22 09:33:00,,0827.4,4.99,0.00,29.9,28.7,00.0,38.6,31.7,14.7,0000.0,0013.75,0006.43,0005.53
2022-07-22 09:34:00,,0827.4,5.00,0.00,29.9,28.8,00.0,38.6,31.8,14.7,0000.0,0013.95,0006.44,0005.51
2022-07-22 09:35:00,,0827.4,4.99,0.00,29.9,28.6,00.0,38.6,31.8,14.8,0000.0,0014.11,0006.47,0005.51
2022-07-22 09:36:00,,0827.4,5.01,0.00,29.9,27.9,00.0,38.5,31.7,14.9,0000.0,0014.13,0006.46,0005.50
2022-07-22 09:37:00,,0827.4,4.99,0.00,29.8,27.6,00.0,38.5,31.7,14.8,0000.0,0013.89,0006.45,0005.50
2022-07-22 09:38:00,,0827.4,4.99,0.00,29.8,27.5,00.0,38.5,31.5,15.0,0000.0,0013.81,0006.47,0005.50
2022-07-22 09:39:00,,0827.5,5.01,0.00,29.7,27.6,00.0,38.5,31.5,14.9,0000.0,0013.91,0006.47,0005.50
2022-07-22 09:40:00,,0827.5,5.00,0.00,29.7,27.7,00.0,38.5,31.5,14.9,0000.0,0014.26,0006.46,0005.50
2022-07-22 09:41:00,,0827.5,5.00,0.00,29.7,27.9,00.0,38.5,31.5,14.9,0000.0,0013.01,0006.47,0005.49
2022-07-22 09:42:00,,0827.5,5.00,0.00,29.7,28.0,00.0,38.5,31.5,15.0,0000.0,0013.56,0006.46,0005.48
2022-07-22 09:43:00,,0827.5,5.00,0.00,29.7,28.1,00.0,38.5,31.6,15.0,0000.0,0014.06,0006.43,0005.46
2022-07-22 09:44:00,,0827.5,4.99,0.00,29.7,28.2,00.0,38.5,31.6,15.1,0000.0,0013.64,0006.40,0005.47
2022-07-22 09:45:00,,0827.6,4.99,0.00,29.7,28.3,00.0,38.5,31.6,15.0,0000.0,0013.80,0006.41,0005.48
2022-07-22 09:46:00,,0827.5,5.01,0.00,29.7,28.4,00.0,38.5,31.7,14.9,0000.0,0014.99,0006.39,0005.49
2022-07-22 09:47:00,,0827.5,5.00,0.00,29.8,28.5,00.0,38.5,31.7,14.9,0000.0,0015.10,0006.43,0005.50
2022-07-22 09:48:00,,0827.5,4.99,0.00,29.8,28.6,00.0,38.5,31.7,14.8,0000.0,0015.20,0006.50,0005.51
2022-07-22 09:49:00,,0827.6,5.02,0.00,29.8,28.7,00.0,38.6,31.8,14.7,0000.0,0014.87,0006.51,0005.51
2022-07-22 09:50:00,,0827.6,4.99,0.00,29.8,28.7,00.0,38.6,31.8,14.7,0000.0,0014.92,0006.51,0005.51
2022-07-22 09:51:00,,0827.6,5.02,0.00,29.9,28.8,00.0,38.6,31.8,14.8,0000.0,0014.92,0006.58,0005.51
2022-07-22 09:52:00,,0827.6,5.00,0.00,29.9,28.8,00.0,38.6,31.9,14.7,0000.0,0014.98,0006.58,0005.51
2022-07-22 09:53:00,,0827.5,5.00,0.00,29.9,28.3,00.0,38.6,31.8,14.7,0000.0,0014.55,0006.56,0005.52
2022-07-22 09:54:00,,0827.6,5.01,0.00,29.9,27.7,00.0,38.5,31.7,14.7,0000.0,0014.05,0006.56,0005.53
2022-07-22 09:55:00,,0827.6,5.00,0.00,29.8,27.6,00.0,38.5,31.6,14.6,0000.0,0013.98,0006.58,0005.51
2022-07-22 09:56:00,,0827.7,5.00,0.00,29.8,27.6,00.0,38.5,31.5,14.7,0000.0,0014.02,0006.55,0005.49
2022-07-22 09:57:00,,0827.7,5.00,0.00,29.7,27.7,00.0,38.5,31.5,14.9,0000.0,0012.74,0006.55,0005.45
2022-07-22 09:58:00,,0827.7,5.01,0.00,29.7,27.8,00.0,38.5,31.5,15.0,0000.0,0012.79,0006.54,0005.42
2022-07-22 09:59:00,,0827.8,5.00,0.00,29.7,28.0,00.0,38.5,31.5,15.1,0000.0,0012.66,0006.45,0005.40
